Date String (YYYY-MM-DD hh:mm:ss) UTC,Instrument flags,absolute air pressure of the measurement (hPa),sample flow rate (lpm),inlet stack bypass flow (lpm),air temperature of the measurement (°C),ambient temperature measured by the external sensor (°C),aerosol sample conditioner tube jacket temperature (°C),OPC LED temperature (°C),internal box temperature (°C),relative humidity of the measurement (%),span deviation,mass concentration of particles derived from Lorenz-Mie calculation of OPC scattering (μg/m³),mass concentration of particles derived from Lorenz-Mie calculation of OPC scattering (μg/m³),mass concentration of particles derived from Lorenz-Mie calculation of OPC scattering (μg/m³)
DateTimeUTC,F1_M11,P_M11,Q1_M11,Q2_M11,T1_M11,T2_M11,T3_M11,T4_M11,T5_M11,U1_M11,ZSPAN_M11,X2_M11,X0_M11,X1_M11
2023-10-18 21:00:00,SystemResetWarning,0831.8,5.00,000.00,028.3,026.8,000.0,036.8,030.1,15.4,0000.0,0003.50,0012.32,0001.89
2023-10-18 21:01:00,SystemResetWarning,0832.0,5.00,000.00,028.4,027.0,000.0,036.8,030.2,15.5,0000.0,0003.49,0012.38,0001.90
2023-10-18 21:02:00,SystemResetWarning,0832.2,5.01,000.00,028.4,027.2,000.0,036.8,030.2,15.0,0000.0,0003.49,0012.78,0001.90
2023-10-18 21:03:00,SystemResetWarning,0832.1,5.00,000.00,028.4,027.4,000.0,036.8,030.3,14.8,0000.0,0003.51,0013.17,0001.89
2023-10-18 21:04:00,SystemResetWarning,0831.8,4.98,000.00,028.5,027.5,000.0,036.8,030.3,14.6,0000.0,0003.50,0013.94,0001.89
2023-10-18 21:05:00,SystemResetWarning,0831.8,5.01,000.00,028.5,027.5,000.0,036.9,030.4,14.5,0000.0,0003.48,0013.96,0001.88
2023-10-18 21:06:00,SystemResetWarning,0831.8,4.99,000.00,028.5,026.1,000.0,036.8,030.3,14.6,0000.0,0003.47,0014.51,0001.88
2023-10-18 21:07:00,SystemResetWarning,0831.8,5.02,000.00,028.5,025.1,000.0,036.8,030.2,14.5,0000.0,0003.51,0013.78,0001.88
2023-10-18 21:08:00,SystemResetWarning,0831.9,5.00,000.00,028.4,025.2,000.0,036.8,030.0,14.4,0000.0,0003.53,0012.87,0001.88
2023-10-18 21:09:00,SystemResetWarning,0832.1,5.00,000.00,028.3,025.4,000.0,036.8,029.9,14.6,0000.0,0003.54,0013.85,0001.90
2023-10-18 21:10:00,SystemResetWarning,0831.8,5.00,000.00,028.3,025.8,000.0,036.8,030.0,14.6,0000.0,0003.55,0014.41,0001.91
2023-10-18 21:11:00,SystemResetWarning,0831.8,5.01,000.00,028.3,026.1,000.0,036.8,030.0,14.6,0000.0,0003.55,0013.67,0001.91
2023-10-18 21:12:00,SystemResetWarning,0831.8,5.00,000.00,028.4,026.4,000.0,036.8,030.1,14.6,0000.0,0003.52,0013.28,0001.89
2023-10-18 21:13:00,SystemResetWarning,0831.8,5.00,000.00,028.4,026.7,000.0,036.8,030.1,14.5,0000.0,0003.48,0013.04,0001.89
2023-10-18 21:14:00,SystemResetWarning,0831.9,4.99,000.00,028.4,027.0,000.0,036.8,030.2,14.7,0000.0,0003.37,0012.84,0001.87
2023-10-18 21:15:00,SystemResetWarning,0831.8,4.99,000.00,028.5,027.1,000.0,036.9,030.3,14.9,0000.0,0003.33,0012.67,0001.89
2023-10-18 21:16:00,SystemResetWarning,0831.8,5.00,000.00,028.5,027.3,000.0,036.9,030.3,14.9,0000.0,0003.33,0012.08,0001.89
2023-10-18 21:17:00,SystemResetWarning,0831.8,4.99,000.00,028.6,027.2,000.0,036.9,030.4,14.9,0000.0,0003.29,0012.17,0001.90
2023-10-18 21:18:00,SystemResetWarning,0831.9,5.00,000.00,028.5,025.4,000.0,036.8,030.2,14.8,0000.0,0003.24,0013.58,0001.89
2023-10-18 21:19:00,SystemResetWarning,0832.0,5.00,000.00,028.4,024.2,000.0,036.8,030.0,14.9,0000.0,0003.21,0014.68,0001.86
2023-10-18 21:20:00,SystemResetWarning,0831.8,5.01,000.00,028.3,024.3,000.0,036.7,029.8,14.9,0000.0,0003.23,0013.90,0001.86
2023-10-18 21:21:00,SystemResetWarning,0831.9,5.01,000.00,028.2,024.6,000.0,036.7,029.7,14.9,0000.0,0003.24,0013.38,0001.85
2023-10-18 21:22:00,SystemResetWarning,0831.9,5.00,000.00,028.2,025.1,000.0,036.7,029.7,14.8,0000.0,0003.20,0013.44,0001.84
2023-10-18 21:23:00,SystemResetWarning,0831.9,5.00,000.00,028.2,025.5,000.0,036.7,029.8,14.9,0000.0,0003.21,0013.93,0001.86
2023-10-18 21:24:00,SystemResetWarning,0831.9,4.99,000.00,028.2,025.9,000.0,036.7,029.9,15.0,0000.0,0003.23,0014.04,0001.87
2023-10-18 21:25:00,SystemResetWarning,0831.9,5.00,000.00,028.2,026.2,000.0,036.7,029.9,14.9,0000.0,0003.36,0014.85,0001.88
2023-10-18 21:26:00,SystemResetWarning,0831.9,5.00,000.00,028.3,026.5,000.0,036.8,030.0,14.8,0000.0,0003.38,0015.18,0001.87
2023-10-18 21:27:00,SystemResetWarning,0831.9,5.00,000.00,028.3,026.8,000.0,036.8,030.1,14.8,0000.0,0003.34,0016.20,0001.87
2023-10-18 21:28:00,SystemResetWarning,0831.9,5.00,000.00,028.3,027.0,000.0,036.8,030.1,14.8,0000.0,0003.35,0015.26,0001.86
2023-10-18 21:29:00,SystemResetWarning,0831.8,5.00,000.00,028.4,027.2,000.0,036.8,030.2,14.8,0000.0,0003.40,0013.78,0001.89
2023-10-18 21:30:00,SystemResetWarning,0831.9,5.00,000.00,028.4,027.3,000.0,036.8,030.2,14.7,0000.0,0003.42,0013.10,0001.91
2023-10-18 21:31:00,SystemResetWarning,0831.9,5.00,000.00,028.5,027.5,000.0,036.8,030.3,14.7,0000.0,0003.43,0013.00,0001.91
2023-10-18 21:32:00,SystemResetWarning,0831.9,5.01,000.00,028.5,027.6,000.0,036.9,030.4,14.7,0000.0,0003.44,0013.24,0001.91
2023-10-18 21:33:00,SystemResetWarning,0832.0,4.98,000.00,028.6,026.4,000.0,036.8,030.3,14.7,0000.0,0003.46,0014.08,0001.92
2023-10-18 21:34:00,SystemResetWarning,0832.0,5.00,000.00,028.5,024.5,000.0,036.8,030.1,14.8,0000.0,0003.52,0014.14,0001.92
2023-10-18 21:35:00,SystemResetWarning,0831.9,5.02,000.00,028.4,024.1,000.0,036.7,029.9,14.8,0000.0,0003.63,0015.67,0001.93
2023-10-18 21:36:00,SystemResetWarning,0831.9,5.00,000.00,028.3,024.4,000.0,036.7,029.7,14.9,0000.0,0003.59,0015.87,0001.94
2023-10-18 21:37:00,SystemResetWarning,0831.9,5.00,000.00,028.2,024.8,000.0,036.7,029.7,15.2,0000.0,0003.54,0015.46,0001.93
2023-10-18 21:38:00,SystemResetWarning,0831.9,5.00,000.00,028.2,025.3,000.0,036.7,029.8,15.3,0000.0,0003.58,0016.38,0001.93
2023-10-18 21:39:00,SystemResetWarning,0831.9,5.00,000.00,028.2,025.7,000.0,036.7,029.8,15.2,0000.0,0003.63,0018.29,0001.93
2023-10-18 21:40:00,SystemResetWarning,0831.9,5.00,000.00,028.2,026.1,000.0,036.7,029.9,15.3,0000.0,0003.61,0019.24,0001.92
2023-10-18 21:41:00,SystemResetWarning,0831.9,5.00,000.00,028.2,026.4,000.0,036.7,029.9,15.1,0000.0,0003.56,0018.98,0001.90
2023-10-18 21:42:00,SystemResetWarning,0832.0,5.00,000.00,028.3,026.7,000.0,036.7,030.0,15.1,0000.0,0003.55,0019.01,0001.90
2023-10-18 21:43:00,SystemResetWarning,0832.0,5.00,000.00,028.3,026.9,000.0,036.7,030.1,15.0,0000.0,0003.52,0019.29,0001.89
2023-10-18 21:44:00,SystemResetWarning,0832.0,5.00,000.00,028.4,027.1,000.0,036.8,030.2,15.0,0000.0,0003.48,0019.96,0001.88
2023-10-18 21:45:00,SystemResetWarning,0832.0,4.99,000.00,028.4,027.3,000.0,036.8,030.2,14.9,0000.0,0003.39,0020.67,0001.86
2023-10-18 21:46:00,SystemResetWarning,0832.0,5.01,000.00,028.5,027.4,000.0,036.8,030.3,14.8,0000.0,0003.29,0020.12,0001.84
2023-10-18 21:47:00,SystemResetWarning,0831.9,5.00,000.00,028.5,027.1,000.0,036.8,030.3,14.8,0000.0,0003.25,0019.34,0001.84
2023-10-18 21:48:00,SystemResetWarning,0831.9,5.00,000.00,028.4,025.5,000.0,036.8,030.1,14.8,0000.0,0003.25,0019.32,0001.84
2023-10-18 21:49:00,SystemResetWarning,0831.9,5.02,000.00,028.4,025.1,000.0,036.7,030.1,15.0,0000.0,0003.25,0017.95,0001.82
2023-10-18 21:50:00,SystemResetWarning,0831.8,4.99,000.00,028.3,025.3,000.0,036.7,029.9,15.0,0000.0,0003.23,0016.27,0001.82
2023-10-18 21:51:00,SystemResetWarning,0831.9,5.00,000.00,028.3,025.6,000.0,036.7,029.9,15.0,0000.0,0003.22,0015.94,0001.83
2023-10-18 21:52:00,SystemResetWarning,0831.9,4.99,000.00,028.3,026.0,000.0,036.8,030.0,15.0,0000.0,0003.25,0016.05,0001.85
2023-10-18 21:53:00,SystemResetWarning,0831.9,5.00,000.00,028.3,026.3,000.0,036.8,030.0,15.0,0000.0,0003.24,0016.45,0001.87
2023-10-18 21:54:00,SystemResetWarning,0831.9,5.00,000.00,028.4,026.6,000.0,036.8,030.1,15.0,0000.0,0003.23,0015.91,0001.88
2023-10-18 21:55:00,SystemResetWarning,0831.9,5.00,000.00,028.4,026.8,000.0,036.8,030.2,15.0,0000.0,0003.30,0014.53,0001.89
2023-10-18 21:56:00,SystemResetWarning,0832.0,5.00,000.00,028.4,027.1,000.0,036.8,030.2,15.0,0000.0,0003.32,0013.65,0001.90
2023-10-18 21:57:00,SystemResetWarning,0832.0,5.00,000.00,028.5,027.3,000.0,036.8,030.3,15.0,0000.0,0003.31,0012.44,0001.90
2023-10-18 21:58:00,SystemResetWarning,0832.0,4.99,000.00,028.5,027.2,000.0,036.8,030.3,14.9,0000.0,0003.30,0011.92,0001.90
2023-10-18 21:59:00,SystemResetWarning,0832.0,4.99,000.00,028.5,025.6,000.0,036.8,030.2,14.9,0000.0,0003.32,0011.71,0001.90
